sat.trackr.live / text

‹ back to catalog

STARLINK-5224

NORAD 55397 · 2023-014G

PAYLOAD ACTIVE UNKNOWN

§ Identity

Operator
Country
US
Launch date
2023-01-31
Launch site
AFWTR
Launch vehicle
Mass (kg)
RCS (m²)

Purposes: comms

External: N2YO · Heavens-Above · Gunter

§ Orbital elements

Epoch: 2026-05-25T04:34:51.684672Z

Period
96.11 min
Inclination
69.9988°
Eccentricity
0.0003416
Mean motion
14.98331592 rev/d
Perigee alt
569.7 km
Apogee alt
574.4 km
Semi-major
6,950.2 km
B*
-1.1181e-6
RAAN
211.7184°
Arg perigee
269.5632°
Mean anomaly
90.5136°
Rev number
18,400

§ Raw data

STARLINK-52241 55397U 23014G   26145.19087598 -.00000106  00000+0 -11181-5 0  99992 55397  69.9988 211.7184 0003416 269.5632  90.5136 14.98331592184003

JSON: /api/v1/satellites/55397 · /tle

For live sub-satellite position, see the globe view (requires WebGL).

§ Visibility from observer

Set your observer location to see the next 7 days of passes ≥ 10°. The values pass through the URL so the page stays shareable.

No JS? Fill the form by hand. The geolocation button needs JavaScript.